GFSWCAN_2pvu_pres_000.txt.gz
Presure
226 199 214 204 181 200 201 188 206 151 144 148 201 201 196 189 170 201 210 323 274 219 265 185 167 253 248 238 222 215 210 142 211 220 214 222 206 225 214 206 195 228 204 176 158 216 206 208 188 183 206 182 209 188
252 206 207 205 194 186 202 195 177 202 140 146 148 184 192 192 198 169 186 206 229 345 222 279 256 226 230 254 251 241 161 149 232 255 204 215 236 238 234 147 208 201 168 154 150 197 197 201 204 192 159 200 204 205
253 216 204 207 183 188 185 203 190 144 184 191 194 190 180 189 191 188 170 173 178 199 212 328 315 281 262 205 232 250 174 176 229 246 251 157 150 161 229 222 160 196 208 206 200 201 207 148 159 205 194 199 214 225
263 233 210 184 202 182 177 196 203 182 178 190 149 190 195 188 193 191 190 187 180 168 172 190 206 286 297 319 247 220 190 250 251 253 202 247 164 168 175 208 244 195 208 223 243 200 242 243 236 198 207 206 223 225
288 248 212 208 158 203 177 201 182 205 191 181 136 151 183 189 190 200 194 193 191 187 187 160 161 161 161 182 234 244 267 268 241 270 253 243 223 217 221 211 248 245 197 226 241 174 173 152 150 169 174 159 148 155
276 250 232 221 211 171 194 193 209 175 186 145 182 185 176 183 155 193 195 195 184 188 161 159 191 178 159 194 162 185 183 208 209 207 209 219 213 160 216 166 140 147 149 143 142 141 142 135 132 162 149 144 150 163
268 274 240 170 202 191 201 192 163 201 200 190 182 178 136 182 183 188 196 186 187 193 157 158 153 164 152 152 143 141 149 186 167 148 161 189 200 162 149 148 158 142 137 138 129 126 170 168 187 168 123 118 129 183
264 266 256 192 200 190 206 203 199 170 195 205 178 126 135 197 187 179 183 160 188 191 191 146 126 129 129 126 130 142 146 139 150 211 147 144 151 146 139 140 138 123 206 124 126 180 162 158 205 147 129 181 164 155
263 272 270 252 215 209 205 206 203 203 153 183 188 189 190 177 190 198 120 155 186 186 143 132 143 132 133 132 131 127 129 133 187 191 146 159 209 143 131 133 129 123 123 212 208 131 207 132 132 201 196 196 194 185
258 263 272 117 243 221 189 203 187 150 203 195 194 176 176 195 198 122 128 187 183 177 129 126 136 129 141 139 197 197 202 201 197 197 198 134 195 210 211 209 204 200 197 110 116 136 199 209 188 215 219 202 149 189
252 267 263 265 262 247 223 199 205 203 204 198 204 187 202 204 185 180 188 188 139 171 189 174 183 183 191 195 194 196 194 189 198 196 197 191 193 98 160 173 100 205 201 197 188 211 196 197 217 144 162 212 210 152
281 257 266 267 261 239 242 229 201 192 205 186 201 203 203 194 187 208 203 191 180 177 192 167 204 197 183 178 184 187 183 193 196 187 184 186 191 181 160 186 206 200 206 218 217 162 205 143 144 167 152 203 216 216
284 266 292 264 271 255 244 258 233 205 207 218 199 206 205 207 204 197 196 193 196 197 196 188 201 185 188 179 185 182 186 191 179 175 183 170 179 197 192 202 202 204 200 202 127 185 142 195 219 206 208 216 223 210
287 275 284 267 246 270 267 258 218 242 221 204 214 205 205 187 189 197 198 190 194 206 201 197 202 201 201 200 201 156 150 195 191 194 194 197 201 202 205 202 196 192 129 143 135 138 183 221 205 220 150 215 215 176
301 280 265 278 253 261 257 254 262 221 297 220 220 211 216 213 200 209 193 205 202 194 197 199 201 196 199 202 198 197 197 197 194 201 193 196 198 202 202 141 159 180 203 199 208 208 189 223 212 154 220 224 214 227
308 296 276 264 267 268 245 251 225 263 263 267 279 218 217 187 209 220 207 203 203 182 188 198 197 196 201 204 200 192 194 199 203 207 210 207 203 188 196 202 207 198 193 215 214 213 213 217 205 216 215 218 223 232
315 311 301 294 272 253 249 266 256 264 257 272 240 235 229 194 187 215 213 205 201 207 206 223 221 207 203 187 188 192 195 205 199 198 199 206 208 197 208 201 197 171 213 213 218 223 214 216 227 219 218 218 233 241
301 301 297 287 289 273 251 246 255 261 262 270 271 284 244 235 225 222 220 213 211 110 221 210 221 209 210 208 208 219 219 213 208 173 211 206 190 165 196 216 216 216 214 218 222 223 220 221 213 221 227 236 248 256
289 297 285 294 287 288 291 257 247 273 270 259 252 260 273 287 268 255 242 225 216 219 217 216 215 213 204 208 209 209 210 209 203 208 209 212 213 211 214 217 216 217 222 213 220 223 215 220 230 236 242 256 267 278
319 300 310 291 281 285 286 291 273 253 255 270 256 255 259 258 259 275 282 279 268 265 253 221 219 214 211 176 197 218 211 210 212 211 211 210 213 215 213 214 222 218 215 223 223 233 242 251 263 271 292 314 298 262
319 378 281 312 289 297 282 275 282 282 281 277 271 253 259 258 258 262 259 265 274 274 289 277 274 143 252 256 249 236 233 230 228 233 238 239 240 239 245 247 249 251 256 259 268 294 296 289 339 338 322 353 345 332
402 340 337 292 270 301 291 291 285 282 283 285 258 287 290 264 269 286 250 268 262 254 253 265 292 293 268 266 294 268 272 268 267 270 268 274 293 292 293 294 291 286 286 283 277 300 325 318 336 339 327 331 334 328
471 396 381 309 329 332 330 310 291 89 191 283 288 284 280 281 285 295 301 294 287 284 289 291 291 287 271 264 271 293 299 291 281 284 293 284 283 279 275 268 265 279 309 348 344 341 336 302 321 329 331 321 320 327
488 411 428 384 316 322 375 361 334 313 308 300 288 289 288 285 299 302 284 287 292 287 288 287 291 293 298 301 300 298 305 310 322 324 322 319 324 345 351 345 337 348 352 350 355 341 337 330 330 328 319 317 336 387
476 479 364 441 398 377 309 320 309 302 327 301 289 301 304 299 284 283 287 281 283 287 291 293 294 297 299 306 316 309 311 321 330 324 330 338 347 352 347 349 367 375 357 341 337 330 324 318 318 323 336 396 385 378
477 481 453 438 404 432 399 367 320 316 323 339 341 335 326 316 313 307 302 302 299 298 299 304 305 304 308 310 316 320 315 315 322 328 326 384 383 377 373 358 349 356 329 323 322 316 309 325 396 389 381 374 369 363
471 487 473 460 441 418 420 429 420 369 340 306 310 309 339 337 331 321 316 316 313 310 310 309 311 315 317 317 313 310 305 302 304 314 369 378 371 393 403 395 319 318 320 320 321 370 393 385 375 370 364 362 359 354
452 454 446 451 440 431 417 409 403 409 418 415 383 361 352 307 303 302 299 300 304 313 311 316 313 312 307 302 303 300 323 389 307 316 401 386 372 329 319 319 369 404 402 402 392 381 373 367 363 362 356 347 333 330
419 435 440 451 450 445 436 425 417 411 406 406 411 414 419 427 424 422 422 423 355 330 331 337 314 295 315 330 307 316 392 313 314 324 342 314 312 384 397 408 407 404 390 377 374 368 364 359 349 335 329 327 330 337
426 427 429 442 441 447 440 431 427 424 421 412 407 402 402 401 400 400 395 394 397 394 390 386 385 384 382 382 379 381 311 304 337 303 336 389 391 410 410 395 378 375 372 366 362 352 338 326 324 328 332 341 418 487
387 396 400 409 417 419 418 424 418 415 413 410 407 403 400 398 397 392 389 386 384 382 379 382 386 385 391 392 394 388 389 380 384 422 393 401 387 379 374 371 368 362 349 331 324 322 326 331 333 350 519 498 436 407
351 356 355 358 373 377 379 381 386 387 391 387 385 383 384 385 384 383 389 389 388 386 385 384 383 379 377 375 373 416 383 382 386 381 380 373 369 363 353 339 327 323 320 323 331 332 322 405 562 505 407 395 387 408
344 343 343 346 343 342 345 352 354 355 354 358 360 362 363 362 380 368 368 372 375 373 381 382 379 371 379 375 374 375 373 367 364 358 348 337 326 320 320 321 325 330 324 319 418 566 524 429 399 386 374 418 385 407

GFSWCAN_2pvu_pres_006.txt.gz
Presure
312 290 288 292 217 200 177 179 207 204 195 201 184 148 178 206 206 213 221 279 285 193 188 243 231 246 232 226 206 215 169 122 223 218 211 223 227 228 231 218 235 229 225 228 201 198 238 198 132 128 239 131 243 197
310 291 297 296 158 151 205 191 220 208 217 191 200 201 148 204 204 213 213 217 304 281 253 213 232 237 233 237 229 225 224 160 121 137 216 209 217 215 220 220 227 225 218 140 151 214 217 128 132 222 127 216 150 213
307 294 283 291 258 245 211 210 205 205 206 211 198 190 193 153 202 203 179 212 215 307 285 260 183 193 230 246 214 240 233 230 131 230 138 223 216 115 213 209 218 224 232 219 230 223 221 164 223 182 214 217 206 177
301 288 281 285 279 252 238 165 209 180 210 202 195 197 199 149 152 200 206 176 211 213 218 289 283 179 190 204 251 236 221 243 243 225 230 234 231 231 224 224 214 207 208 214 205 206 213 184 184 220 221 220 212 196
303 288 239 274 281 254 219 221 200 207 203 207 195 202 185 178 147 152 200 197 173 185 216 216 311 326 275 257 246 250 247 248 186 243 233 214 184 227 221 229 231 223 213 223 211 217 217 221 130 131 172 180 191 219
304 234 288 287 280 234 236 207 210 206 183 209 202 176 201 189 162 145 157 203 202 194 172 183 209 211 331 307 274 261 217 219 254 253 160 144 212 206 222 227 160 156 164 215 164 171 204 226 221 222 233 235 231 230
306 279 272 270 273 241 230 220 208 218 205 200 207 200 191 197 189 199 162 203 201 206 205 196 166 173 176 200 209 317 289 274 233 226 279 265 258 246 247 207 183 247 251 256 258 208 253 224 210 212 248 246 240 144
337 286 278 266 270 265 240 227 216 212 191 203 209 205 200 192 174 191 186 198 191 199 191 190 200 201 161 161 161 163 165 224 332 323 274 232 229 257 270 256 246 236 242 244 249 249 172 158 174 195 178 170 138 126
331 302 274 266 272 265 244 237 231 212 224 202 205 208 208 200 192 148 195 185 198 183 195 196 196 196 199 196 196 198 167 195 194 169 170 172 172 199 199 210 201 171 171 189 195 191 162 151 149 190 139 140 133 139
318 305 279 256 262 267 279 243 235 228 203 219 206 201 203 206 200 187 170 197 141 139 136 152 200 201 163 171 196 196 187 173 149 196 134 134 134 143 147 147 143 199 144 201 202 143 204 207 135 134 141 119 202 193
292 298 281 252 257 264 266 269 240 237 230 212 217 211 211 207 195 192 178 206 189 196 192 149 187 194 188 197 209 201 190 196 169 168 132 135 133 132 133 134 128 139 152 151 197 191 163 205 177 148 197 190 170 185
304 287 290 277 270 255 262 266 253 237 242 228 219 217 204 208 213 207 186 174 178 184 192 187 194 191 190 193 195 199 195 190 188 184 153 134 133 131 146 181 139 139 186 191 188 188 138 94 85 187 175 180 194 199
287 287 155 281 272 257 252 265 267 250 245 232 220 220 210 215 209 211 199 200 186 187 167 185 130 200 183 184 193 134 188 194 184 124 144 139 140 135 135 139 195 194 193 119 176 195 180 175 180 170 196 193 200 193
314 304 316 246 271 264 254 258 268 275 260 248 241 217 223 218 215 212 207 202 202 203 198 181 205 204 198 195 185 193 182 190 184 184 181 177 171 189 173 170 193 195 165 181 206 203 197 200 196 193 191 193 194 194
330 328 310 287 250 255 252 262 263 265 271 266 253 247 245 225 208 206 212 208 206 186 195 200 203 204 202 209 195 189 191 180 186 187 191 182 176 180 191 190 192 198 197 195 192 192 193 189 166 194 153 197 204 211
316 316 306 257 276 263 255 255 258 264 271 273 276 272 255 250 234 215 198 204 214 211 212 198 197 209 199 202 200 203 200 193 174 192 189 183 184 186 192 194 193 192 195 190 189 188 195 197 202 206 208 207 214 212
306 328 311 291 257 270 261 263 257 253 267 268 270 270 267 266 263 251 221 209 189 183 219 156 179 164 197 201 203 203 204 197 185 186 188 190 192 192 195 191 187 189 188 208 209 207 199 197 203 210 215 215 230 224
333 341 278 304 287 276 266 259 258 257 257 271 257 257 265 260 264 263 256 239 220 219 203 201 214 217 214 206 194 202 205 204 204 202 197 195 193 201 198 178 181 194 196 191 204 206 185 205 220 229 230 227 224 235
350 353 300 276 280 281 270 267 260 261 261 254 258 255 253 252 247 252 260 265 257 236 241 177 217 209 205 202 206 207 211 202 199 204 204 206 187 205 208 211 211 209 207 214 218 225 230 226 226 225 229 238 237 236
355 342 364 295 300 294 277 270 272 265 263 259 256 247 254 245 250 261 257 252 254 257 259 255 239 228 216 211 209 207 198 212 212 213 153 213 214 216 217 218 183 225 224 210 225 223 228 234 236 233 232 235 274 276
398 357 323 301 341 318 296 279 275 277 263 265 262 252 252 256 253 249 241 251 254 252 250 255 255 254 253 253 233 227 213 211 224 229 232 229 231 229 230 229 224 224 232 242 235 233 237 239 240 241 252 271 266 264
468 361 350 317 317 333 313 299 291 283 281 270 266 264 259 256 252 255 254 255 255 246 242 246 257 257 258 257 264 259 262 262 258 258 261 266 263 258 255 249 236 237 240 260 284 269 264 266 270 262 261 264 297 329
537 461 359 341 328 324 320 311 296 289 283 284 276 271 268 267 259 257 255 256 255 256 259 259 258 255 249 249 250 257 258 250 246 248 253 259 262 259 262 261 264 273 269 257 253 254 259 265 263 273 313 330 275 325
528 515 447 371 337 331 329 311 310 301 294 287 282 271 264 258 263 274 273 266 266 265 254 269 269 268 264 261 261 259 258 259 251 254 257 261 253 251 253 252 253 251 249 251 256 265 289 301 305 321 326 337 345 341
493 511 471 444 446 348 332 328 314 298 294 293 293 291 287 286 287 289 290 285 286 287 289 275 268 262 261 262 262 261 260 256 257 260 263 253 253 258 261 263 261 263 264 270 310 299 310 319 326 320 318 348 317 331
467 499 490 476 432 432 431 329 332 320 310 306 296 291 288 84 281 279 165 266 268 272 277 277 277 282 281 283 285 280 282 272 260 262 265 267 270 277 278 286 303 291 282 292 307 316 324 324 324 333 316 329 415 408
482 482 487 483 467 430 464 445 425 339 322 322 314 317 311 304 305 218 304 300 299 300 299 299 297 292 287 290 294 296 301 298 293 290 284 192 287 294 298 298 294 299 298 319 326 319 329 325 313 328 408 434 412 417
476 480 484 491 484 471 463 459 438 429 409 378 321 316 313 313 311 286 289 294 298 293 291 270 285 283 282 279 278 277 280 284 287 291 288 288 290 293 294 296 298 306 289 328 340 307 314 330 413 413 421 415 409 406
425 458 482 485 494 492 479 462 460 464 442 423 403 381 369 335 322 311 306 300 299 294 289 283 294 301 279 285 293 279 292 287 293 304 304 304 307 158 229 314 321 353 306 331 326 374 418 411 438 406 402 399 388 371
392 430 457 431 472 485 489 485 477 464 461 454 440 421 402 387 371 369 369 354 331 319 314 308 305 303 307 308 309 305 306 303 302 308 309 311 304 306 310 317 335 366 409 405 405 406 404 401 397 387 377 360 341 333
361 374 382 404 422 440 462 480 488 489 485 473 462 452 443 432 409 388 376 371 366 365 362 365 369 371 371 372 355 359 355 331 322 329 329 398 393 419 413 410 418 418 409 407 401 393 385 375 361 345 333 332 335 447
336 344 353 361 382 392 413 428 448 454 468 478 469 466 459 457 453 440 432 426 433 426 429 433 425 430 434 431 438 439 387 439 430 428 425 419 413 410 412 411 404 394 387 382 372 360 344 333 329 329 333 460 399 357
338 335 340 342 344 354 369 376 391 404 416 433 447 462 451 446 437 434 443 446 446 441 442 440 439 431 429 426 425 422 418 417 421 432 413 401 388 387 386 381 377 368 355 341 331 327 328 341 409 420 374 337 352 307

GFSWCAN_2pvu_pres_009.txt.gz
Presure
344 354 292 298 292 290 286 237 231 192 185 213 200 179 207 203 209 222 213 224 312 282 243 235 234 223 216 201 212 210 207 157 222 221 222 221 232 238 225 196 197 197 202 196 188 184 168 137 188 187 184 164 155 171
353 361 295 304 294 288 176 257 232 216 185 199 219 206 210 216 209 219 212 216 229 287 258 238 242 225 225 222 220 231 221 221 219 195 226 227 227 217 219 232 244 237 239 218 209 194 128 198 149 169 132 138 133 137
361 354 297 306 293 289 298 166 235 215 217 196 221 208 209 158 149 213 204 214 215 226 197 173 238 246 232 231 237 227 198 209 211 204 186 218 213 217 223 229 230 237 230 235 236 232 231 161 136 128 225 238 235 151
422 336 302 305 301 283 293 183 196 214 218 203 223 198 217 198 149 213 214 211 217 220 232 272 256 236 232 237 226 236 237 230 222 221 213 222 217 180 193 218 218 216 216 233 229 228 197 230 229 199 204 182 218 225
414 327 317 309 307 288 291 267 150 202 220 185 197 205 197 202 208 149 208 197 179 218 217 202 285 266 208 193 204 238 236 223 235 232 226 231 196 232 228 216 216 216 213 217 214 183 214 216 214 216 205 222 206 134
314 343 314 306 299 295 289 283 232 152 206 205 214 209 211 197 197 150 151 202 210 175 218 210 217 224 284 265 255 246 243 241 244 238 230 180 238 230 228 224 149 239 235 231 217 218 218 222 213 219 224 225 229 230
323 328 329 300 295 286 283 294 237 213 222 167 200 218 206 203 194 202 149 150 195 202 176 191 211 213 217 297 299 279 258 207 236 245 200 241 252 253 232 237 238 238 239 245 210 160 230 221 206 199 187 222 231 228
303 319 242 294 289 277 277 279 238 226 218 222 193 219 211 213 199 200 190 149 150 173 200 201 174 194 211 209 211 271 321 300 284 239 241 263 258 199 151 254 200 170 214 233 240 246 248 253 257 260 264 237 236 234
329 324 306 296 285 280 281 269 238 227 223 222 213 208 205 205 207 178 192 198 189 190 202 202 204 205 187 167 168 175 188 209 214 318 298 290 266 246 266 271 284 282 274 275 256 233 241 244 246 236 211 189 148 149
310 321 288 287 284 276 271 275 239 228 212 215 231 194 213 183 208 202 195 193 193 191 196 198 203 204 183 202 206 160 160 156 160 158 197 201 205 203 197 192 200 197 198 200 196 150 146 140 134 134 136 210 214 212
314 298 295 283 275 268 266 268 267 233 220 213 225 218 207 206 195 202 206 201 188 191 191 191 194 198 199 197 192 196 197 195 172 170 198 171 152 188 177 137 137 136 138 132 129 130 141 184 133 206 197 135 186 191
309 297 300 280 276 261 263 265 272 259 236 224 219 218 213 208 209 211 208 203 196 172 185 195 200 167 159 163 200 203 206 206 179 180 197 168 213 180 136 140 139 137 140 138 179 137 139 141 202 196 171 192 196 135
309 294 303 283 266 265 268 268 267 272 240 227 216 213 229 161 215 200 188 200 202 195 196 178 193 147 208 197 152 182 189 191 181 186 196 130 194 199 191 133 138 138 136 140 150 183 164 164 185 189 194 199 199 193
303 334 299 294 269 255 256 260 265 268 274 237 231 224 218 219 185 217 209 197 207 204 202 203 193 211 180 186 198 203 182 187 183 185 157 117 118 129 165 197 196 193 170 177 183 177 178 192 194 167 193 190 192 190
335 331 331 298 272 264 258 261 264 266 265 261 236 238 228 224 220 209 210 208 208 200 205 202 194 188 194 159 204 196 191 192 162 192 193 190 187 191 192 182 174 174 188 181 178 197 172 189 189 190 193 188 186 188
359 297 295 307 288 263 261 263 258 259 268 269 273 260 238 236 226 222 215 205 204 209 210 203 212 206 197 178 195 177 186 187 191 192 194 194 195 193 191 189 189 191 187 190 187 186 183 194 194 193 195 198 201 204
362 327 282 323 308 287 264 255 261 258 262 269 272 270 273 251 238 228 227 224 217 210 208 206 202 210 207 206 206 206 197 197 200 199 200 198 192 197 201 201 197 197 200 190 189 195 196 198 193 199 195 207 203 214
438 330 300 283 291 284 285 270 262 268 267 271 267 268 270 267 261 236 231 225 229 227 215 217 213 208 209 206 205 209 201 201 202 199 191 160 196 210 209 204 203 204 192 199 202 200 200 204 208 203 206 200 205 217
424 348 318 277 281 296 303 269 275 273 267 265 275 277 265 261 267 263 258 227 226 233 234 225 219 214 212 209 205 198 202 212 216 189 205 193 196 195 199 200 198 201 201 203 149 208 203 198 193 201 215 226 228 225
424 398 314 311 298 297 273 270 276 278 274 265 269 273 275 266 255 257 260 264 261 255 245 240 239 228 227 226 222 219 215 213 202 204 208 200 208 212 199 203 209 184 120 150 202 206 212 217 222 228 226 227 254 273
518 424 397 320 305 304 301 274 295 291 276 274 268 270 265 259 255 254 254 258 259 261 260 260 263 264 263 259 259 254 256 253 239 229 223 213 217 202 218 215 215 212 214 221 224 227 243 260 264 268 264 264 266 261
553 474 426 351 312 302 302 281 300 296 301 286 272 264 261 263 254 252 247 250 255 258 255 256 256 256 258 261 260 262 264 264 265 265 265 264 262 264 264 265 261 264 264 262 265 263 267 269 258 252 253 272 273 261
450 549 395 411 345 333 277 302 300 304 304 296 279 266 264 264 258 256 252 254 250 252 254 251 249 246 247 249 249 250 253 257 259 259 259 261 179 189 259 254 253 251 251 255 260 267 264 265 258 262 264 271 275 275
433 483 532 383 402 377 327 317 275 309 304 299 291 276 271 267 265 268 258 253 247 246 249 253 216 247 245 245 246 248 248 248 247 250 252 253 256 256 262 265 264 255 265 265 260 267 273 267 264 270 278 274 275 310
425 426 515 516 451 381 387 321 292 306 302 313 305 294 283 275 268 270 272 264 262 257 226 246 243 245 246 246 242 242 245 245 245 245 253 262 259 257 255 253 255 260 266 264 267 266 267 275 316 310 311 311 288 313
500 514 424 525 497 463 369 373 373 354 286 308 308 309 295 296 291 281 276 96 270 144 267 262 259 257 254 253 251 252 252 249 252 252 253 252 159 259 263 262 268 276 275 274 284 295 301 299 294 282 298 311 323 299
466 494 507 511 510 479 463 460 363 361 362 349 345 343 334 307 288 288 289 253 165 283 281 275 275 276 277 274 269 271 267 266 260 259 262 264 269 277 280 271 270 301 308 308 306 292 285 292 288 315 321 317 316 323
454 458 497 505 504 506 471 452 442 447 426 347 346 344 308 296 286 325 319 309 300 298 299 294 293 288 281 277 280 276 265 272 284 286 286 258 275 279 283 306 307 302 294 284 279 288 302 313 311 308 324 328 402 421
397 432 455 487 497 506 504 483 454 445 450 438 414 352 340 336 334 327 326 312 308 302 299 297 295 294 292 292 291 290 293 288 283 281 286 295 300 300 299 292 263 270 282 301 306 312 316 324 326 337 414 427 424 412
356 382 419 482 457 469 481 503 500 480 458 443 443 427 410 402 365 362 338 326 318 316 314 308 301 299 298 297 217 293 299 298 304 308 293 309 301 309 295 304 309 314 317 314 318 369 428 416 424 427 414 405 393 386
339 348 361 374 407 418 458 469 473 488 492 477 459 451 434 418 413 402 399 397 393 388 363 328 323 321 318 320 320 320 320 316 315 317 317 319 321 322 321 349 371 398 423 429 422 431 426 410 406 398 389 377 362 338
336 343 339 350 356 370 399 422 451 471 476 481 488 480 463 455 445 432 415 406 402 399 397 397 396 387 386 379 374 368 371 377 387 384 387 398 408 405 426 439 433 433 420 417 411 407 396 391 381 366 348 331 332 413
325 339 350 348 341 343 352 377 394 418 437 454 471 479 487 481 481 467 452 442 436 434 430 419 412 405 401 399 400 401 403 428 443 441 444 445 436 429 432 430 417 409 399 391 390 387 371 349 334 326 374 392 351 326

GFSWCAN_2pvu_pres_012.txt.gz
Presure
508 594 350 324 333 301 296 288 258 269 240 232 212 216 215 158 157 209 205 209 212 196 199 245 224 229 231 232 225 225 90 206 197 203 204 189 190 185 181 182 188 210 221 225 231 233 229 240 243 192 244 181 187 245
565 472 347 331 338 303 293 288 275 265 242 176 209 210 215 147 158 204 205 205 220 228 190 258 226 227 230 228 224 223 223 224 219 92 217 194 101 203 200 191 194 179 179 184 198 212 217 226 231 228 188 141 218 218
563 380 350 313 328 304 293 287 274 265 252 236 217 205 217 192 152 205 213 204 215 231 282 243 242 235 225 207 225 226 220 228 222 223 228 230 228 229 233 234 210 207 187 195 195 192 185 181 186 199 141 197 196 197
556 455 350 321 337 295 295 285 265 254 252 222 200 214 217 214 145 202 219 207 216 222 355 271 195 238 233 221 221 220 224 228 215 224 222 221 227 230 229 194 224 228 231 227 240 239 216 199 201 133 194 195 197 151
564 576 345 338 345 295 287 292 262 257 242 228 213 215 213 216 203 203 153 201 206 217 230 296 193 239 240 232 224 232 225 222 214 206 221 197 220 222 223 220 222 166 229 227 227 228 228 226 233 230 210 233 231 227
556 546 353 336 330 301 291 298 289 248 249 228 191 212 217 216 205 209 157 153 205 210 225 263 277 259 245 238 244 238 227 232 241 228 222 211 220 196 222 224 221 217 224 221 228 221 223 229 139 138 226 226 226 229
563 471 364 285 300 284 285 288 281 256 154 215 210 218 194 214 220 201 214 160 197 204 210 219 219 266 266 234 243 228 240 234 232 237 239 238 227 220 228 232 223 232 239 228 223 209 226 220 225 219 222 225 226 227
551 458 351 351 300 302 258 281 269 252 243 151 167 212 218 214 218 203 213 204 171 172 177 205 217 210 216 267 229 265 258 253 254 246 226 241 243 242 225 229 229 240 240 239 233 244 247 249 248 234 239 240 204 187
556 526 350 345 322 300 288 279 273 275 242 233 146 198 211 192 201 208 206 215 162 152 151 200 173 218 215 218 219 222 262 285 278 269 265 221 265 260 231 239 243 247 247 261 189 178 241 235 245 246 251 257 260 263
558 465 363 348 297 283 288 280 280 265 255 244 223 165 154 213 219 207 202 197 207 166 155 148 193 179 171 208 208 211 212 210 217 322 319 305 282 256 237 271 248 174 261 265 270 277 285 288 269 250 204 137 132 150
580 385 404 344 349 282 292 270 253 270 264 243 219 224 219 208 211 217 210 177 186 203 202 160 146 202 201 203 183 170 171 169 165 163 165 167 201 220 220 220 220 219 212 207 198 186 186 182 131 132 146 131 198 191
440 387 359 318 357 292 290 279 271 275 273 246 229 216 219 210 219 212 216 210 201 175 197 204 182 152 163 203 200 203 203 187 158 161 181 197 180 164 191 181 159 178 183 142 141 137 134 137 133 139 169 172 200 189
533 383 311 313 316 290 275 275 271 274 280 269 251 222 222 217 218 223 196 210 210 200 195 178 203 205 208 105 203 199 194 193 191 192 193 196 194 199 197 190 186 181 127 127 132 136 132 148 150 176 188 186 188 183
554 420 383 294 313 279 278 270 273 276 273 278 272 240 225 220 156 110 223 172 177 193 205 205 186 184 193 202 149 192 133 138 138 156 198 201 206 203 202 208 205 201 197 193 190 197 199 196 192 189 182 192 174 171
551 393 297 332 322 287 274 270 270 274 276 278 280 284 238 222 215 219 213 208 213 202 183 188 202 204 172 203 189 195 196 195 180 191 107 187 193 189 187 166 115 186 161 185 187 190 193 190 182 187 187 176 189 198
544 440 304 322 298 279 274 272 270 268 273 280 276 275 263 232 224 217 214 215 209 208 204 202 207 206 208 199 184 193 183 194 203 192 193 196 196 128 133 184 195 197 198 197 186 183 192 196 193 190 191 190 197 200
553 440 372 312 290 277 280 276 272 267 270 272 268 269 268 232 232 223 210 211 213 212 208 206 205 201 190 197 203 204 203 199 199 198 195 199 204 204 198 192 189 190 193 196 197 200 198 200 202 194 193 205 200 198
560 430 318 303 286 277 276 278 271 272 265 274 272 272 268 248 232 230 220 213 217 212 223 214 211 205 205 208 207 194 196 201 203 176 194 172 201 201 196 194 202 202 203 195 208 203 193 194 201 200 195 198 201 207
621 401 373 297 285 279 280 277 281 271 271 269 270 268 267 265 266 236 227 224 225 222 214 210 211 212 208 207 205 212 214 209 206 206 209 208 209 210 208 210 209 204 203 201 200 207 210 202 198 208 213 214 218 212
541 420 349 304 292 280 279 280 276 274 278 266 263 267 273 267 264 261 259 248 233 232 227 225 224 217 209 209 212 214 220 217 210 193 208 209 211 210 207 207 208 210 205 202 201 202 205 209 200 194 204 211 224 231
452 583 490 322 300 287 274 274 280 283 272 273 269 266 262 263 256 260 260 260 255 234 229 232 230 230 231 232 226 222 223 222 221 220 218 216 214 213 213 211 212 217 217 217 217 229 238 137 245 248 262 263 261 261
429 538 508 392 351 308 296 278 280 274 282 270 267 264 264 263 265 263 258 253 257 259 259 257 256 263 242 235 230 228 229 231 233 230 227 229 230 233 234 236 237 244 252 259 266 266 263 261 261 260 257 257 262 261
489 470 564 490 338 331 309 310 305 296 286 277 276 264 262 260 264 267 264 265 259 257 259 260 261 259 260 262 265 265 256 254 253 256 257 258 258 257 261 261 264 268 267 261 255 255 252 251 256 258 261 261 264 267
482 472 458 545 333 319 321 309 291 295 301 294 290 285 278 271 265 260 266 268 270 269 265 260 264 261 259 250 253 255 258 259 260 261 261 260 259 260 260 257 254 253 253 251 250 256 261 252 251 254 263 266 266 269
472 481 446 462 534 379 314 309 312 308 284 298 299 288 285 286 281 280 278 270 269 271 275 271 267 263 261 258 255 249 243 248 250 251 254 251 251 253 255 250 248 248 249 250 247 253 255 254 261 261 268 269 268 299
490 501 523 474 461 510 468 311 306 301 305 299 301 298 284 283 282 281 285 278 266 269 268 276 275 263 260 258 251 249 251 252 249 250 251 251 250 250 250 251 248 252 254 254 252 256 256 261 260 274 264 277 285 297
439 486 501 520 528 424 501 477 403 305 303 300 298 298 302 299 291 284 286 271 271 275 203 219 284 285 285 272 260 258 257 253 251 253 252 252 252 251 252 253 254 258 253 249 257 259 270 272 276 287 304 297 312 315
390 413 466 506 513 509 419 485 469 446 394 300 301 296 296 299 288 288 293 293 283 281 287 285 283 292 290 285 279 271 267 266 266 263 261 262 262 261 260 260 261 261 267 277 283 287 283 297 305 299 306 315 296 332
358 382 398 461 497 506 511 501 479 468 456 443 406 357 303 302 300 299 297 292 287 279 274 285 274 293 289 285 287 284 282 284 282 283 285 288 290 287 285 287 292 296 301 312 306 303 307 301 306 318 330 332 346 447
363 356 368 389 419 474 495 509 511 484 465 458 454 441 424 392 377 375 344 324 323 318 311 300 279 277 290 291 293 292 296 297 297 294 289 290 298 303 306 307 306 306 306 303 304 306 311 327 331 340 387 453 443 418
340 352 352 357 371 390 416 468 492 504 501 479 461 449 446 431 423 412 402 385 366 349 348 332 310 335 300 297 322 295 333 333 330 293 293 319 319 317 313 311 309 308 313 323 330 335 377 419 446 449 438 429 411 400
317 356 363 357 352 356 372 395 444 479 487 497 500 500 473 454 438 423 417 414 409 401 400 396 394 391 361 351 347 341 338 334 325 331 331 331 330 331 332 332 333 334 400 418 455 450 449 440 429 418 408 395 374 354
310 318 332 346 347 350 347 356 376 406 456 465 486 494 500 499 489 474 447 423 412 408 408 405 403 400 396 395 394 393 391 393 391 394 392 390 395 404 405 415 413 397 407 376 371 424 412 402 396 383 361 341 342 423

GFSWCAN_2pvu_pres_015.txt.gz
Presure
497 562 570 523 355 356 310 330 298 285 226 254 243 222 228 209 209 215 163 210 206 186 196 248 238 230 233 229 200 209 198 200 193 192 161 111 214 226 244 244 246 293 199 195 215 249 295 225 209 202 196 197 195 194
567 560 564 457 366 344 318 327 296 291 277 265 242 180 226 216 211 205 204 220 190 212 214 243 248 229 230 229 221 222 204 192 193 193 190 195 192 186 190 217 240 241 242 247 227 204 215 292 282 266 254 151 255 258
595 558 556 541 366 338 335 310 296 291 277 261 242 229 218 215 221 169 161 190 209 208 212 190 259 232 234 225 232 231 232 202 200 197 190 193 187 185 188 192 193 204 208 227 236 240 241 244 244 245 245 240 192 160
604 558 466 383 356 340 323 316 297 280 269 239 239 220 227 214 214 183 162 177 210 215 217 190 192 252 229 230 226 231 227 227 232 234 238 202 196 195 197 192 189 186 187 181 188 202 210 216 189 227 151 228 228 227
609 555 370 394 360 328 328 321 294 287 271 230 237 217 226 206 216 195 154 211 207 211 219 226 234 273 243 230 234 230 225 221 227 230 229 229 230 221 212 196 198 201 199 195 195 198 201 189 187 188 186 193 196 205
610 550 561 377 355 339 324 319 296 279 265 246 231 239 226 203 218 209 148 206 208 206 217 226 240 291 262 230 225 234 225 221 220 220 219 228 223 226 228 232 231 233 230 232 229 232 201 200 202 202 199 198 198 196
613 546 570 365 351 332 323 311 294 279 257 254 242 238 226 216 216 211 213 202 161 213 218 220 255 328 238 249 237 231 224 223 221 225 229 225 225 226 225 219 220 223 227 228 225 224 228 229 225 230 232 237 239 164
615 542 551 379 344 326 326 295 292 282 251 258 240 237 226 204 215 215 203 210 171 154 211 219 241 321 276 251 238 235 226 225 230 227 230 223 217 219 218 222 224 221 223 225 222 223 223 179 225 232 226 224 223 224
609 557 534 367 343 336 329 298 291 283 241 259 244 238 220 218 203 215 211 212 205 162 178 208 224 344 293 269 253 205 199 195 238 230 229 230 229 226 211 242 232 233 230 231 235 241 226 235 238 242 237 236 249 246
605 553 372 359 353 323 316 292 283 279 253 259 248 247 228 178 205 213 212 208 212 207 208 159 191 215 222 292 277 270 239 200 247 242 240 236 234 239 245 244 247 251 251 252 250 144 244 247 253 218 228 256 266 236
605 532 391 502 354 325 297 293 274 276 288 249 250 250 237 163 194 213 209 214 216 207 208 210 161 146 174 215 218 222 240 276 279 272 277 270 261 273 278 244 212 204 282 205 269 217 255 252 254 265 265 254 127 131
607 544 585 507 351 339 298 283 268 282 282 251 244 246 242 220 222 146 217 219 199 211 208 205 167 186 155 151 193 211 216 221 219 220 214 216 259 230 226 273 332 341 277 270 267 256 207 199 188 157 133 138 137 133
611 551 570 452 345 344 295 283 268 282 279 252 250 251 246 218 223 187 211 213 204 202 206 207 205 208 193 178 148 163 183 176 175 174 176 169 164 165 165 167 175 194 191 191 195 174 168 131 130 134 199 134 182 184
598 552 502 370 347 308 291 281 266 277 277 283 254 249 250 245 219 210 188 161 212 206 208 211 199 203 185 204 205 206 159 184 205 201 199 182 161 170 197 195 188 164 164 166 200 190 190 186 189 175 200 194 194 199
542 528 455 380 339 309 289 280 271 278 285 281 269 250 252 212 221 218 215 204 184 214 209 208 209 197 184 202 194 200 201 201 200 198 199 174 194 196 179 176 194 199 203 206 199 155 121 152 147 187 194 190 187 189
519 562 573 409 337 337 291 282 277 274 282 280 278 259 247 242 237 227 214 216 210 211 202 196 210 208 197 189 203 194 191 200 203 181 126 175 198 197 194 194 195 196 195 194 192 125 128 185 188 196 198 195 194 194
501 556 581 408 345 321 324 287 278 282 286 278 275 277 262 256 246 232 228 211 214 217 207 224 177 188 210 209 201 197 184 183 188 195 193 196 197 197 197 199 200 194 201 146 192 194 192 197 198 191 190 191 195 200
486 642 424 407 359 315 320 295 286 282 284 280 282 279 273 262 255 245 234 227 213 211 219 216 207 217 204 175 185 189 195 202 202 197 197 197 192 190 190 189 190 188 192 194 194 192 190 190 191 188 199 204 210 199
487 524 556 398 354 290 311 311 287 287 279 283 284 280 268 268 267 260 244 235 223 216 215 213 215 217 213 212 205 209 210 204 206 205 203 202 200 198 185 200 203 186 199 196 197 199 185 180 208 208 203 202 202 206
480 460 560 441 378 301 316 310 293 286 277 286 283 282 273 267 268 268 257 238 240 236 227 220 217 214 212 209 215 215 211 210 206 199 201 204 199 203 205 206 203 195 196 200 206 204 208 208 196 119 199 213 214 216
544 471 594 519 347 329 314 289 291 294 292 278 278 280 275 271 270 267 266 267 267 263 242 237 228 225 222 213 214 213 211 213 213 211 212 210 211 211 211 204 205 209 210 213 216 217 217 216 216 218 224 230 235 236
531 541 460 517 339 347 295 288 283 293 292 283 279 270 271 275 264 262 261 263 265 263 263 262 248 234 229 226 224 223 218 213 212 214 215 213 212 210 209 211 211 212 213 216 219 222 224 226 231 234 242 243 258 273
377 549 514 576 482 330 309 307 297 308 300 287 282 272 273 270 269 265 264 263 257 259 260 260 261 261 256 238 229 228 228 226 223 223 223 224 226 223 223 223 224 227 228 227 231 235 241 246 251 265 265 267 266 263
354 508 520 491 550 476 323 311 309 308 305 286 286 273 271 271 272 270 262 258 255 257 260 261 262 262 265 264 258 247 245 238 237 236 236 235 235 234 232 233 231 232 244 248 252 263 263 265 264 264 264 260 260 260
353 387 555 461 489 506 391 336 312 306 299 290 283 284 280 271 267 269 271 267 265 265 263 257 255 259 266 264 260 260 261 262 263 261 262 262 258 255 259 253 255 261 263 263 261 259 262 263 263 263 262 260 261 259
355 359 466 558 476 502 490 391 341 366 305 294 284 285 278 272 272 270 269 264 264 266 265 265 265 262 260 259 258 256 256 256 255 257 256 257 261 262 263 265 265 264 262 264 266 256 254 259 262 261 260 265 268 267
355 340 373 529 548 466 525 489 452 378 341 345 297 287 280 276 281 274 271 268 260 260 268 268 268 266 262 263 264 268 264 261 261 264 264 267 266 268 267 266 267 266 263 260 258 259 260 261 263 266 266 268 272 275
347 338 368 378 515 539 539 441 482 452 404 382 341 315 310 291 283 277 273 278 273 253 258 260 262 269 269 262 277 278 281 284 286 287 289 287 286 277 281 284 284 263 264 265 266 265 265 267 270 273 275 286 298 316
343 332 345 368 384 515 529 528 504 484 452 437 389 349 325 338 314 311 299 293 285 276 281 279 273 270 272 274 268 261 259 258 262 271 275 280 261 276 276 283 289 296 303 312 310 306 301 301 305 310 311 317 331 334
345 337 336 364 354 391 469 529 522 500 482 465 446 430 388 322 320 324 304 298 299 299 292 282 278 278 279 282 283 281 281 278 273 273 275 280 284 276 267 268 283 285 283 293 300 306 310 302 301 317 338 322 357 361
344 331 319 333 368 359 378 417 502 531 497 481 451 454 443 428 399 307 307 305 296 291 295 299 300 301 299 296 295 295 296 299 298 293 291 288 288 289 288 283 284 281 280 301 293 295 299 304 348 366 359 432 460 454
320 302 325 325 373 366 359 363 390 451 526 525 489 481 464 448 437 432 426 414 384 306 298 305 303 298 297 297 299 298 298 296 296 296 298 299 298 299 301 307 309 321 341 313 317 375 409 416 419 471 464 445 432 417
311 315 328 321 322 345 460 351 352 376 408 480 495 524 511 491 449 439 441 432 426 421 416 411 403 396 392 343 313 311 311 313 310 310 309 313 373 371 373 374 392 362 403 409 415 433 483 464 440 427 414 404 394 379

GFSWCAN_2pvu_pres_018.txt.gz
Presure
451 421 598 560 463 382 362 354 323 311 306 285 133 138 246 238 225 206 217 210 210 217 221 237 236 233 230 232 208 201 204 196 207 222 232 236 265 282 262 196 200 223 289 259 272 231 203 197 194 190 187 186 183 183
448 416 473 561 572 371 359 347 337 298 305 279 252 130 227 235 229 197 221 200 210 220 221 223 236 238 228 233 208 206 198 202 203 198 220 226 133 238 241 217 203 202 204 282 304 315 328 205 200 196 190 189 186 187
444 417 469 565 569 371 368 311 330 298 293 279 265 234 229 238 225 206 222 206 162 218 216 219 206 238 229 234 237 204 208 191 202 200 201 195 217 222 235 242 245 255 212 198 200 259 282 272 282 226 206 202 201 199
440 414 465 566 572 370 365 337 326 308 284 275 267 261 237 237 226 197 223 201 214 193 209 202 227 241 228 228 231 231 212 205 221 193 199 197 190 200 205 214 222 231 239 241 241 227 207 224 278 269 267 264 264 234
438 411 469 566 429 365 367 319 340 305 284 276 262 266 235 226 215 226 220 163 195 199 219 212 219 193 239 225 231 227 233 225 203 198 197 196 190 189 192 193 193 192 199 217 229 232 238 239 240 233 243 243 242 241
436 409 587 560 490 370 361 322 336 298 290 268 260 263 239 220 216 227 220 166 164 209 206 213 199 193 255 240 227 229 224 226 231 228 228 200 194 192 194 191 104 107 190 190 189 188 189 190 218 221 224 226 223 221
430 411 602 549 474 580 359 329 334 301 287 274 267 231 237 230 210 225 205 214 155 206 211 218 219 204 224 251 245 232 229 227 225 227 226 230 231 228 228 229 205 198 198 203 202 194 192 191 192 194 194 193 198 199
428 526 601 559 513 484 360 348 332 299 286 276 273 237 237 236 215 225 205 218 207 146 173 212 220 220 227 231 252 246 231 230 229 225 222 223 221 226 227 226 227 229 233 234 232 232 230 229 216 232 234 217 217 218
426 586 603 563 560 390 370 319 327 299 289 272 276 264 238 234 211 225 202 223 212 217 152 165 217 217 224 236 247 270 234 226 233 222 223 220 224 221 226 225 225 227 227 224 221 223 228 230 226 225 225 227 212 230
481 585 603 550 588 380 333 319 323 294 293 277 273 259 235 236 210 215 174 214 218 201 209 158 156 215 221 240 279 299 277 234 230 236 226 220 217 221 225 229 224 223 226 230 228 223 226 228 228 230 233 244 248 247
486 527 608 541 589 385 326 316 321 295 283 275 277 242 235 236 226 211 222 209 221 200 212 204 188 157 204 235 309 317 284 255 239 217 213 225 222 227 227 232 236 239 237 234 235 237 237 239 249 235 235 249 252 261
608 558 621 564 511 357 326 318 319 290 284 279 271 244 232 234 239 221 227 193 214 195 193 211 205 212 160 149 248 329 285 271 244 237 235 220 232 236 236 233 241 247 239 230 271 239 296 168 229 277 282 251 265 224
609 608 576 572 490 354 325 317 317 291 291 279 269 267 237 230 240 231 214 170 207 210 206 205 210 205 210 216 157 143 188 288 269 264 255 248 256 261 262 273 278 286 309 308 305 310 306 323 236 219 203 192 141 125
473 561 540 576 484 349 327 310 315 296 289 277 273 256 268 248 237 119 199 156 193 150 210 210 209 213 217 210 173 158 173 149 155 226 272 278 285 219 215 210 205 197 194 167 194 197 194 192 194 201 193 183 179 195
460 540 529 578 577 354 322 317 309 292 291 286 283 262 252 262 243 233 222 211 197 202 152 146 213 221 215 217 209 204 182 186 180 204 188 172 176 171 172 177 163 161 161 162 163 172 190 194 198 152 182 168 121 155
450 525 518 579 546 363 329 324 304 291 289 291 292 269 253 218 250 233 229 215 212 206 207 215 141 202 209 212 208 206 205 204 206 205 205 202 200 200 188 198 196 196 181 196 194 190 191 198 198 197 196 195 155 190
467 523 512 594 463 387 347 318 296 304 285 290 287 282 273 255 253 243 236 226 219 214 212 207 217 169 188 198 210 204 198 203 195 192 205 200 203 205 204 201 201 201 200 199 197 194 191 191 193 196 134 200 202 203
356 431 509 585 439 411 340 300 306 301 288 287 286 275 282 280 245 250 242 240 226 215 217 216 215 189 217 192 197 203 204 198 191 200 198 197 178 194 195 200 200 198 200 198 197 196 196 195 193 192 190 185 180 193
339 439 551 559 567 428 338 311 317 297 290 287 285 272 277 281 264 246 239 238 239 232 219 215 221 218 199 190 209 214 207 203 200 196 201 200 196 194 191 187 188 191 196 198 197 196 194 196 186 192 198 200 201 200
358 458 405 497 563 419 336 316 330 322 292 289 281 280 276 285 279 257 248 236 240 235 236 229 219 215 217 217 211 205 199 209 211 186 189 193 197 206 204 192 188 190 191 197 200 200 200 197 194 196 199 199 200 210
325 475 412 574 587 533 351 321 315 315 292 291 282 280 277 275 277 272 258 250 243 241 241 242 237 227 214 211 211 209 211 211 214 207 201 204 202 197 196 191 201 203 201 201 199 186 188 196 199 205 211 215 212 211
330 402 429 420 500 564 369 321 313 324 306 290 287 286 275 275 268 274 270 263 258 254 250 243 243 239 233 227 223 218 214 212 211 210 209 206 207 210 211 208 207 208 208 205 208 208 210 215 214 213 212 220 225 227
346 356 437 389 551 477 529 364 350 319 315 306 296 284 284 279 275 278 273 269 257 257 263 262 258 252 246 247 246 238 231 226 218 210 210 210 210 210 212 212 211 212 211 207 206 208 212 215 216 218 222 224 230 235
355 458 436 388 445 500 535 485 392 338 313 310 307 313 294 277 272 275 269 271 263 262 264 259 264 269 269 265 257 253 248 240 236 234 229 225 224 223 222 219 218 219 220 220 220 223 224 225 227 231 237 246 255 261
356 377 433 393 364 530 530 514 459 404 332 314 309 301 294 295 287 287 271 271 268 268 266 267 271 266 264 263 263 272 273 269 266 263 261 260 260 256 239 238 239 239 238 237 237 239 239 241 260 266 264 266 264 268
377 447 431 400 368 383 484 516 492 436 363 316 318 318 299 300 303 291 282 267 264 269 265 264 266 265 263 261 261 265 266 266 264 262 261 260 258 257 258 259 261 263 260 260 262 262 264 260 260 260 262 268 275 274
430 376 388 392 360 359 561 464 499 476 429 356 320 315 307 304 294 295 284 282 278 277 271 268 261 260 261 264 264 263 262 261 260 260 258 256 256 256 254 252 256 260 256 253 255 261 261 260 267 292 302 301 299 295
383 379 404 395 357 351 386 569 462 486 464 426 323 329 315 305 302 298 290 282 279 273 272 269 265 267 263 262 266 265 263 262 261 260 260 258 259 263 263 263 263 264 265 263 275 288 289 289 279 286 287 285 294 291
381 395 408 395 358 340 377 387 546 480 476 461 425 328 309 309 310 310 300 295 288 281 281 281 277 275 275 275 270 268 265 266 267 268 266 266 262 264 265 265 274 274 279 277 271 284 290 284 286 281 274 285 302 300
345 406 388 377 359 337 348 366 387 549 527 465 467 435 408 383 317 299 295 299 296 289 286 285 284 280 275 272 273 272 268 265 265 267 263 263 263 275 263 264 282 281 283 284 277 280 282 286 295 301 307 312 311 307
369 395 369 371 356 329 320 376 365 429 545 524 470 463 452 412 393 379 353 317 300 292 289 287 286 285 283 275 269 268 269 268 267 266 266 275 277 262 276 265 275 279 279 281 287 292 292 244 301 299 303 307 320 326
406 356 368 361 316 310 328 335 369 365 396 541 523 505 425 459 444 406 381 372 363 350 350 348 334 314 303 300 299 296 294 289 287 287 280 282 283 287 290 291 293 293 294 295 301 303 307 301 311 313 330 334 444 476
368 365 360 346 325 322 326 320 331 369 357 372 489 541 508 492 413 452 440 423 387 369 360 354 351 358 353 348 324 313 308 304 302 300 314 306 306 299 299 298 298 301 303 306 309 315 323 338 410 429 471 464 445 427

GFSWCAN_2pvu_pres_021.txt.gz
Presure
270 359 473 429 450 602 538 433 366 318 321 311 309 299 281 141 256 237 220 218 211 219 213 212 195 234 228 216 203 209 189 208 222 225 234 259 247 220 212 205 215 228 239 246 253 249 269 244 199 200 194 187 186 186
298 360 476 428 452 609 589 402 392 313 325 304 312 300 277 133 245 234 221 205 223 220 215 212 246 235 234 222 209 207 205 198 204 229 227 232 287 206 203 208 212 222 247 245 252 250 262 237 199 195 196 196 187 187
309 366 476 427 457 604 588 418 376 323 297 301 310 283 266 143 186 230 211 226 215 212 212 220 234 236 236 225 215 206 206 202 205 192 220 233 251 238 276 218 200 202 217 257 313 261 247 237 198 209 186 190 191 192
343 363 471 427 610 595 585 430 362 349 323 305 289 285 262 253 222 227 213 224 212 170 219 214 224 237 234 234 221 215 206 202 202 198 198 213 224 167 246 253 263 234 202 201 203 271 273 278 280 233 207 205 198 191
343 359 461 430 611 573 578 421 340 337 303 288 303 281 257 247 209 223 223 202 211 170 181 224 221 250 235 236 235 225 206 210 200 199 203 200 203 213 217 224 230 239 200 249 234 199 197 240 277 275 276 269 268 226
345 356 457 607 605 564 433 403 397 316 314 301 294 269 252 248 238 216 224 203 222 160 220 220 217 233 202 231 234 237 233 212 200 206 196 197 198 201 197 193 213 215 225 229 232 239 243 242 205 202 236 244 242 241
337 362 460 600 599 566 588 391 356 319 313 297 283 266 257 250 238 214 224 197 225 216 172 219 207 191 240 233 231 233 232 232 227 231 213 204 202 202 197 194 190 188 189 196 196 193 187 222 223 231 231 232 232 239
336 372 465 594 602 590 582 400 333 309 304 293 280 265 262 248 238 218 227 203 213 215 143 217 217 220 220 198 241 241 228 228 232 232 228 229 216 204 200 197 197 196 195 192 191 191 194 192 192 193 194 194 193 194
337 505 588 589 609 567 430 401 332 303 303 289 280 271 256 242 221 232 218 217 224 207 198 145 212 214 212 199 197 252 244 232 226 224 229 224 225 225 232 236 232 228 224 224 225 224 201 199 199 199 199 199 199 200
330 507 601 610 631 559 589 388 354 310 298 286 279 272 260 245 235 235 209 193 211 207 214 173 144 216 220 219 225 226 234 250 229 221 221 220 225 220 222 229 227 225 225 224 225 228 227 229 228 227 226 233 237 235
327 368 584 619 576 586 564 389 376 324 301 290 279 273 274 252 239 237 210 221 216 201 212 213 212 154 201 221 222 224 227 211 244 241 223 217 225 229 228 221 225 226 226 224 222 223 225 227 233 237 237 236 242 239
321 355 465 555 567 603 585 388 358 323 305 290 276 278 265 262 248 239 233 205 221 194 210 211 209 208 153 202 223 223 227 222 241 255 260 221 230 231 226 224 226 225 223 222 224 227 234 235 239 246 251 256 256 234
294 350 405 540 587 609 531 373 364 324 304 292 280 276 276 267 262 238 239 199 216 199 203 210 206 206 205 208 167 220 213 233 251 314 291 256 192 185 228 224 224 224 227 228 232 231 246 259 300 314 300 313 317 320
293 356 333 537 588 609 381 373 341 315 310 293 286 285 283 280 236 120 122 123 199 217 208 209 212 212 197 210 217 217 211 152 149 293 287 283 206 234 237 234 231 232 232 244 256 266 288 294 261 238 213 202 199 194
291 359 337 492 642 607 395 352 335 314 311 306 292 291 287 275 270 149 222 231 209 207 219 193 213 221 218 208 215 204 178 184 227 152 146 147 277 252 248 245 254 259 264 280 280 161 162 161 164 168 191 183 186 196
276 342 330 480 623 581 490 336 326 315 309 307 308 300 285 158 273 259 224 227 229 209 208 152 192 202 210 215 207 213 203 209 202 216 212 154 156 165 295 200 202 173 170 170 171 186 194 198 199 199 197 192 194 199
281 323 330 337 539 608 565 330 326 317 308 312 310 291 289 270 267 261 243 229 228 231 215 208 139 209 213 192 209 205 205 203 211 216 208 209 211 207 208 203 195 197 197 200 201 200 197 197 197 196 197 199 195 193
276 318 335 327 478 602 575 343 322 316 317 306 315 304 280 271 266 265 249 234 230 231 234 223 214 213 202 175 208 160 207 206 207 209 211 210 210 214 206 202 204 201 200 200 201 196 135 146 198 194 196 197 190 193
272 328 327 326 417 506 585 452 334 317 315 309 306 308 285 271 265 261 261 259 236 230 225 227 229 224 211 207 198 203 210 181 199 201 203 204 203 204 189 193 197 201 201 199 197 180 196 197 184 173 175 187 199 191
269 333 318 318 390 449 589 532 351 327 315 308 303 307 300 281 278 262 259 255 257 245 235 229 224 224 229 218 210 206 202 206 207 207 193 204 205 201 199 199 198 196 192 192 197 200 196 194 201 201 195 190 186 193
273 331 319 314 373 468 429 552 424 335 321 306 301 303 302 292 279 270 263 255 255 253 255 251 241 235 229 227 224 213 208 205 199 207 206 208 208 206 204 199 198 194 196 198 194 190 191 193 195 198 183 192 204 207
270 324 324 312 387 472 430 568 515 413 328 309 299 298 298 297 282 275 270 267 264 259 252 245 246 245 237 232 224 226 222 212 211 212 208 202 192 191 192 191 196 192 200 204 208 209 205 203 210 211 213 213 212 208
275 333 319 312 378 472 428 419 541 458 389 317 307 297 301 296 296 288 270 272 269 268 268 260 252 244 240 243 239 237 236 234 227 221 213 205 205 207 208 206 204 204 204 203 204 202 203 207 209 210 209 210 212 207
274 318 318 307 371 466 443 403 555 509 433 383 320 309 297 284 289 298 279 278 272 272 264 266 271 271 267 246 243 244 242 236 235 238 236 232 227 220 210 204 203 204 205 207 207 208 205 207 207 211 213 218 223 227
292 322 308 308 372 405 435 411 379 533 474 422 333 317 300 288 285 295 285 279 272 276 269 262 259 262 270 266 260 254 247 244 243 240 240 242 242 241 238 240 238 229 226 227 229 228 228 228 229 233 248 259 245 257
305 319 302 310 406 418 387 405 381 369 511 450 414 332 317 307 298 292 300 277 277 275 272 268 266 262 262 263 266 267 266 263 261 259 257 257 257 260 264 266 267 267 272 272 268 265 265 264 263 262 263 264 265 266
304 304 306 408 463 403 382 403 375 363 522 491 433 403 324 314 305 312 299 301 284 269 267 266 265 261 259 259 258 257 257 260 266 269 268 264 269 275 273 271 269 267 266 268 267 265 263 264 265 263 261 261 264 271
305 302 373 461 447 389 417 401 370 354 522 503 470 422 396 332 311 304 298 298 301 284 271 271 263 260 259 258 260 263 263 263 265 266 270 270 271 274 272 267 266 267 267 266 266 266 266 266 262 261 264 265 272 271
300 306 486 441 367 356 371 391 369 350 358 531 491 458 411 388 380 329 311 301 296 296 287 287 275 290 285 277 272 268 269 275 275 266 261 264 267 268 270 264 260 259 262 264 266 265 264 264 267 268 276 274 275 282
315 480 382 368 359 360 379 382 363 347 345 385 533 484 453 414 380 371 363 350 319 305 293 287 286 282 274 270 270 273 274 268 264 262 263 264 264 268 274 276 274 272 273 272 266 269 277 274 275 271 267 276 291 297
404 384 368 357 350 398 383 377 353 335 336 369 395 531 488 455 426 381 359 350 341 328 309 297 305 298 290 281 280 276 276 283 280 279 275 267 271 264 269 271 273 282 284 281 277 277 272 271 278 271 284 296 301 312
385 366 359 350 355 371 379 367 344 333 329 376 369 403 521 511 468 433 405 368 349 339 336 318 299 296 298 300 293 292 303 302 291 286 288 281 292 295 289 286 289 291 289 287 290 289 289 292 295 303 310 313 322 330
376 364 352 347 369 370 366 357 334 316 331 343 377 367 416 515 499 495 449 413 389 361 344 336 337 338 327 315 318 319 298 294 293 296 298 299 300 290 290 293 293 292 293 292 295 302 306 316 327 317 320 327 347 365

GFSWCAN_2pvu_pres_024.txt.gz
Presure
292 265 269 352 497 446 622 451 386 340 338 324 325 309 285 303 245 259 245 236 225 230 202 221 181 234 237 211 208 216 207 222 276 231 215 214 193 213 249 231 199 244 240 264 225 223 241 251 247 208 243 261 249 218
286 263 271 353 506 557 633 596 394 343 345 320 334 302 299 285 184 140 246 235 227 223 219 222 192 235 235 212 207 213 213 209 221 276 245 233 239 203 206 215 221 212 227 247 255 252 223 233 208 210 249 242 182 182
283 256 279 354 505 616 630 636 388 342 336 317 333 299 289 282 255 126 239 234 227 201 220 220 225 234 229 217 205 207 212 204 215 215 221 280 233 236 223 215 230 234 240 244 240 241 242 255 255 267 227 201 192 189
281 255 281 361 496 611 619 597 554 375 326 324 332 304 283 275 255 247 130 235 223 201 220 217 227 233 235 228 229 205 207 207 199 210 251 245 268 267 264 215 206 210 221 256 239 271 259 247 248 246 258 201 196 191
280 253 286 365 616 605 612 586 549 402 325 320 340 299 283 270 253 246 238 219 222 212 222 219 234 235 235 234 231 209 206 205 205 201 194 203 227 246 259 277 282 249 199 198 208 267 267 276 281 289 274 221 194 190
290 254 291 376 612 572 613 581 459 381 336 323 323 282 288 269 253 246 235 230 223 216 216 222 222 233 237 235 229 224 204 205 204 206 198 198 214 201 232 233 236 260 257 252 249 200 201 204 270 280 285 284 257 212
262 255 289 379 613 563 611 586 444 369 335 329 322 293 285 268 250 242 237 233 223 204 207 167 219 244 224 231 236 232 224 210 206 208 200 202 204 199 202 201 209 213 218 225 235 234 240 140 250 219 214 213 249 262
257 257 285 388 641 628 641 595 465 349 309 336 322 293 281 267 249 241 233 229 223 203 216 218 222 221 258 236 236 242 232 232 218 209 205 203 205 200 197 198 198 199 198 196 195 195 195 199 203 212 218 224 230 232
253 259 284 384 440 586 568 599 433 343 335 328 315 291 282 263 250 244 237 234 216 206 210 187 155 222 216 196 244 237 233 231 232 232 227 220 236 224 201 214 204 199 197 195 193 195 199 198 194 191 192 195 197 198
252 265 283 365 428 578 595 616 408 363 331 308 294 288 282 261 258 245 239 229 221 201 207 208 152 150 231 208 225 242 243 231 227 226 223 224 220 221 222 222 215 211 205 202 202 202 202 201 232 231 231 232 234 234
252 258 283 349 437 593 614 611 419 349 327 312 279 297 157 262 255 249 239 235 220 198 187 212 213 164 150 221 217 218 192 233 244 230 224 222 223 224 229 224 223 223 229 230 229 227 228 225 223 226 228 228 229 228
252 254 283 309 356 606 617 507 391 353 323 305 304 303 293 265 254 255 239 234 213 219 198 198 212 193 203 178 210 211 208 216 221 237 238 233 236 229 227 225 225 224 220 222 221 223 225 223 224 224 230 236 235 245
255 253 278 295 358 629 616 592 400 344 316 302 305 303 290 263 262 250 243 225 213 214 218 204 206 212 213 208 197 214 223 218 227 227 198 234 247 245 237 230 228 230 228 224 221 222 225 225 224 227 232 240 260 296
255 251 274 292 368 547 622 571 509 352 329 302 307 302 292 273 264 128 103 114 122 211 219 226 208 216 218 216 213 209 209 218 215 214 214 233 236 243 255 261 245 235 233 229 227 225 225 226 233 230 246 277 276 250
251 250 271 286 322 337 626 513 525 368 330 315 299 305 299 276 267 256 243 231 226 225 218 210 232 200 198 221 216 212 200 165 213 190 218 220 234 243 272 232 253 191 234 227 226 234 231 233 247 227 161 161 164 169
244 248 265 276 290 339 614 594 514 366 339 322 309 302 304 286 273 262 241 227 228 227 229 221 206 229 195 203 212 196 202 209 211 168 161 207 152 149 168 276 297 200 276 234 234 240 250 269 273 169 193 198 196 196
241 242 262 270 281 346 325 607 505 371 344 336 314 298 300 296 274 270 256 239 228 106 102 229 221 206 224 214 202 203 205 201 208 210 209 208 170 221 162 247 270 153 153 153 167 175 258 225 204 187 194 200 201 198
237 241 258 266 279 288 323 538 584 377 347 330 325 309 299 303 287 271 264 254 251 242 232 224 230 225 206 211 213 201 213 215 210 201 205 208 208 213 212 216 219 222 237 236 238 217 208 201 200 198 201 204 147 202
238 239 247 264 275 278 334 345 599 503 354 340 326 317 314 317 293 276 269 266 252 250 242 228 230 229 226 215 176 144 212 186 211 210 211 207 206 203 202 207 212 215 213 212 210 206 205 206 206 205 203 200 197 192
241 239 244 266 274 278 328 326 503 578 498 339 333 323 317 309 303 286 278 270 266 256 251 233 226 221 224 229 229 215 203 208 193 168 198 154 204 203 207 205 202 204 207 208 207 200 191 188 186 187 188 189 192 195
239 241 244 265 272 280 332 326 424 465 554 353 326 328 314 311 305 299 295 279 272 268 265 254 232 228 224 221 223 225 225 219 201 200 201 204 189 194 205 207 155 154 154 205 205 202 203 202 200 200 201 201 197 200
236 239 253 260 266 278 324 330 322 470 534 530 361 322 321 308 301 301 296 293 283 267 267 262 262 254 242 233 229 225 225 229 227 220 210 207 204 200 199 196 196 200 204 205 205 205 205 205 205 206 204 199 195 198
236 239 258 266 266 276 330 323 313 482 440 531 477 353 313 309 305 298 300 298 286 277 271 262 261 259 256 252 244 236 226 225 221 221 219 215 217 220 220 211 204 202 202 199 198 197 193 193 192 200 196 201 209 208
240 243 263 266 269 277 335 324 310 475 447 446 502 443 363 312 301 299 302 299 293 284 270 265 265 261 258 258 257 252 245 236 229 225 223 220 220 222 222 222 219 216 218 214 210 205 203 204 206 206 208 209 209 209
239 247 266 269 270 316 323 311 414 462 442 412 510 442 422 342 313 305 297 298 292 289 282 274 260 259 260 257 257 257 256 250 248 245 242 240 240 239 236 233 230 228 228 228 230 232 233 235 237 236 235 235 243 246
243 243 269 267 281 320 318 307 483 446 438 415 387 496 412 402 341 318 305 300 301 290 287 287 276 269 265 264 261 260 258 256 255 251 248 245 241 238 236 237 237 237 236 239 240 239 239 241 243 245 251 264 267 268
243 264 267 273 289 323 316 432 463 397 372 412 387 418 485 396 384 341 315 301 296 290 289 287 284 279 268 266 264 263 261 262 265 265 264 264 264 264 264 262 261 262 262 262 261 261 262 267 272 273 275 274 275 274
255 266 269 275 304 319 313 480 387 372 366 408 384 368 387 475 399 377 359 311 305 298 286 286 286 286 276 272 270 269 267 263 265 261 260 258 257 254 255 259 263 265 266 267 264 265 271 270 268 278 275 273 270 272
260 266 270 280 316 308 473 391 372 366 371 400 385 365 357 492 460 424 369 362 321 304 290 288 285 290 294 281 279 271 270 267 262 259 260 258 256 257 260 262 261 261 258 258 266 267 266 274 272 268 268 268 270 273
266 268 274 309 305 390 390 382 365 364 403 389 377 366 352 413 474 447 416 381 365 350 308 297 285 286 279 274 273 279 276 272 269 264 264 265 269 267 263 262 262 262 263 264 258 260 272 278 272 268 266 272 273 267
266 271 294 309 336 394 384 373 363 369 395 380 363 354 351 350 513 463 434 406 378 377 353 327 308 301 295 282 280 276 276 280 277 274 265 264 263 262 264 263 263 267 265 271 275 275 274 270 279 277 276 280 278 285
269 296 308 327 401 385 382 366 359 388 389 367 352 343 336 378 379 505 457 424 398 373 363 351 336 319 309 297 291 292 291 292 298 288 287 275 271 268 272 275 271 273 287 284 269 268 272 273 282 287 282 291 296 291
300 304 320 417 402 385 366 357 357 381 375 358 343 336 331 371 374 511 508 453 414 389 372 357 349 343 332 319 308 303 300 293 289 287 284 288 293 289 284 288 290 289 284 277 277 284 289 302 313 323 318 310 309 314

GFSWCAN_2pvu_pres_027.txt.gz
Presure
329 316 310 284 268 321 636 627 641 375 346 333 323 314 331 306 284 291 269 256 249 243 233 234 220 209 243 234 210 210 252 232 289 258 257 213 202 221 213 201 194 228 181 220 247 237 214 243 157 236 237 255 250 244
324 310 308 278 269 339 634 622 641 373 353 338 331 320 331 293 288 277 263 251 250 238 232 234 205 234 238 224 212 216 229 230 248 233 216 228 213 249 209 223 266 237 178 249 226 185 222 256 252 257 243 245 244 220
315 309 294 271 273 347 620 619 630 401 352 327 310 338 293 301 292 257 157 152 246 232 232 225 197 240 229 221 220 214 214 221 275 248 232 211 185 217 219 213 218 208 251 263 227 199 204 186 233 211 250 237 210 210
310 311 297 269 277 342 609 619 634 404 360 327 325 349 300 300 271 254 255 123 246 234 225 200 216 182 233 216 214 216 220 210 222 220 269 250 221 211 218 221 225 233 229 222 229 228 232 238 226 213 220 216 221 239
308 308 296 268 286 341 614 621 640 452 362 332 334 345 307 284 266 252 253 211 150 233 228 211 222 183 235 221 214 211 213 212 213 220 265 264 279 248 241 205 207 247 275 270 274 249 252 250 246 243 250 240 262 255
311 313 289 263 288 343 633 639 649 633 357 329 328 341 307 279 264 248 247 245 239 227 223 211 228 238 237 231 215 211 210 211 209 208 209 221 247 260 258 272 276 222 202 272 207 262 263 269 277 299 289 249 248 220
307 310 289 257 282 346 572 599 592 620 357 340 337 327 304 274 263 237 251 248 239 223 221 203 187 238 241 237 228 217 209 205 208 209 203 200 194 215 218 233 242 236 253 251 245 235 210 200 201 218 262 275 279 279
304 299 286 256 286 362 604 588 606 609 367 348 346 295 306 272 264 243 253 247 238 226 222 195 217 228 240 238 234 233 211 210 208 202 206 206 208 199 199 200 207 209 216 221 223 227 230 231 231 232 234 215 196 219
304 305 279 254 283 326 613 622 621 517 367 349 345 294 299 274 261 241 254 247 232 235 220 213 218 224 235 232 240 228 228 226 211 206 204 203 206 204 201 201 198 191 191 189 190 189 195 204 205 206 207 211 212 214
301 302 278 253 282 310 610 619 618 469 369 347 339 311 294 278 264 247 245 246 233 233 216 208 219 208 234 247 237 235 233 229 228 226 212 206 206 220 204 200 201 200 198 196 194 193 190 191 191 190 190 200 197 194
293 296 279 252 279 299 357 618 615 485 357 346 315 310 289 283 272 259 248 249 236 228 220 194 204 219 155 160 248 231 231 231 232 228 228 228 232 230 221 225 203 203 203 202 205 204 204 205 209 222 228 228 229 227
299 295 277 249 271 286 334 625 609 406 358 346 332 326 292 288 279 269 250 244 236 219 225 218 208 208 212 195 182 220 247 239 231 226 225 228 223 223 227 226 224 224 223 222 221 222 226 226 225 225 227 224 227 222
278 294 272 249 255 280 298 636 598 470 359 347 327 336 291 282 294 279 253 233 230 223 226 102 215 207 210 218 154 149 218 227 234 196 201 243 226 221 221 222 223 223 223 224 223 223 221 219 221 222 226 221 226 222
292 293 270 255 244 273 285 313 574 432 367 339 337 334 332 287 297 286 222 155 235 231 228 225 220 212 219 208 217 214 209 223 198 209 220 228 235 190 240 243 242 240 238 235 230 225 225 226 228 223 225 226 225 231
270 291 273 257 234 264 285 295 389 534 365 345 340 322 343 305 297 286 247 242 233 229 227 150 221 224 192 198 217 214 214 202 142 217 220 221 223 225 209 229 230 232 234 240 247 230 244 248 232 231 230 232 226 233
278 289 275 264 230 253 273 290 323 504 510 354 343 341 338 326 294 287 274 245 243 234 109 228 228 221 221 164 196 203 215 207 208 183 186 211 212 211 206 205 216 227 236 251 273 188 269 279 260 240 222 227 239 160
255 286 274 267 233 243 264 278 297 324 533 378 339 336 334 333 315 300 277 261 247 239 235 231 228 226 228 222 223 144 208 218 220 211 209 201 158 202 212 212 158 156 184 217 301 294 297 294 289 265 253 181 191 255
288 283 275 264 245 243 259 264 284 303 318 573 353 336 334 329 300 295 287 281 259 246 235 234 231 227 226 225 206 218 229 204 209 217 214 209 209 209 210 170 161 215 217 163 165 195 220 160 181 220 267 252 224 213
280 278 275 264 250 239 253 255 271 288 329 357 564 351 338 323 312 290 294 286 281 256 174 233 230 230 228 229 228 224 204 220 221 198 204 209 197 201 205 208 210 201 204 208 209 210 213 210 214 214 213 213 210 208
292 279 276 265 251 231 246 265 260 279 347 319 586 429 350 338 320 310 284 288 280 269 257 244 130 225 228 232 228 225 228 217 201 212 219 182 203 207 211 211 210 209 206 207 205 203 206 209 211 212 211 210 210 208
294 295 279 267 253 234 243 261 266 271 338 329 315 567 380 351 333 317 311 288 286 280 265 258 252 235 234 232 231 226 226 227 223 215 199 206 214 214 201 195 200 210 210 209 206 206 208 207 203 203 202 204 206 203
292 294 276 268 252 240 241 252 267 270 279 333 312 485 552 361 345 330 321 318 300 281 282 275 267 259 255 239 235 236 234 230 225 224 224 219 199 199 200 201 210 211 203 196 194 195 196 199 199 199 200 202 203 204
316 281 270 264 251 242 240 247 267 272 284 345 318 494 513 523 357 330 324 323 314 313 289 282 278 274 267 262 257 245 240 236 236 230 224 223 223 222 220 217 212 208 203 199 199 199 198 199 199 199 200 201 200 199
294 274 268 264 251 245 244 251 271 272 287 345 332 488 457 531 496 345 332 321 317 306 301 291 281 276 274 271 263 259 257 251 242 241 235 224 218 217 216 217 217 218 221 222 222 222 222 219 216 217 218 218 219 218
282 273 271 252 248 242 247 259 269 278 290 339 416 478 452 430 502 471 343 328 322 315 303 296 281 276 271 270 269 268 267 263 261 255 251 242 229 224 222 220 220 219 217 218 219 220 219 218 219 217 216 223 226 231
273 270 265 247 256 247 254 264 269 283 295 331 485 467 453 428 452 471 435 333 314 316 315 297 290 282 279 275 272 272 272 270 264 259 259 255 252 250 247 245 243 243 240 235 231 224 227 235 234 233 238 245 245 242
260 269 256 249 250 247 258 269 276 285 292 325 438 400 385 430 409 493 439 399 328 315 304 301 305 287 281 275 275 274 273 271 266 263 264 260 258 258 257 255 254 253 251 249 246 153 246 244 245 244 260 258 270 273
265 262 244 247 249 256 267 274 278 285 317 396 397 387 380 401 407 407 446 414 383 339 322 305 292 299 286 287 277 275 272 269 266 263 263 263 256 254 253 253 253 258 262 264 262 264 270 271 267 265 265 262 262 269
265 253 253 252 248 262 270 278 285 300 335 398 387 379 378 423 404 384 394 424 387 371 337 322 309 293 292 292 292 277 272 272 265 261 261 260 258 255 256 261 263 265 266 270 268 265 263 264 267 269 271 268 266 273
262 253 249 246 257 264 276 284 292 312 405 391 379 375 394 408 397 379 368 397 418 371 363 343 321 313 308 300 289 283 273 271 267 263 263 263 264 262 262 260 259 257 257 257 257 260 267 266 260 260 266 271 270 271
248 242 248 253 262 274 280 293 310 419 401 387 370 375 405 395 385 375 362 356 464 452 377 365 361 313 313 311 305 297 291 285 270 270 270 267 267 270 267 265 266 265 263 262 262 261 270 260 265 271 262 260 268 266
242 251 251 262 273 280 289 307 422 411 391 372 362 396 396 380 364 354 356 349 347 471 450 372 356 352 346 323 305 298 290 291 290 287 276 275 273 272 270 268 268 268 266 266 270 270 267 271 274 272 269 268 272 272
245 251 263 271 278 290 306 430 413 401 376 361 357 386 377 366 353 338 337 365 375 464 440 421 392 353 345 342 341 327 304 295 289 287 286 281 278 261 262 275 280 254 259 275 266 269 273 278 274 280 283 286 288 290

GFSWCAN_2pvu_pres_030.txt.gz
Presure
298 310 328 335 334 245 287 275 648 443 388 355 344 327 330 322 316 302 292 286 260 266 255 247 244 237 224 242 231 220 260 240 188 224 229 251 260 250 223 201 205 215 233 212 232 183 217 234 214 236 238 239 237 212
315 334 323 335 332 292 284 274 646 640 389 364 327 329 322 355 333 300 293 186 264 256 249 240 238 233 247 229 231 228 252 260 285 237 223 188 256 260 211 212 177 219 211 226 219 222 213 219 232 247 235 222 231 198
306 332 317 319 333 293 283 273 651 658 406 366 327 338 297 342 330 295 274 262 254 257 243 241 237 231 241 225 228 228 274 252 299 264 238 202 190 236 212 244 238 223 220 184 214 205 238 197 193 243 233 251 234 226
295 314 312 301 336 289 282 288 595 655 422 373 324 317 329 323 301 288 263 260 171 249 246 238 236 212 240 224 225 225 249 267 235 214 228 207 224 230 232 214 267 232 177 242 268 219 204 238 222 222 222 184 226 234
307 316 315 317 325 284 281 333 613 675 678 379 324 333 327 313 292 271 259 255 248 128 246 241 233 223 242 222 221 219 222 224 274 288 220 215 216 220 218 228 221 227 230 226 244 224 231 231 225 226 221 224 215 213
306 324 310 322 319 283 279 332 622 618 622 377 350 337 326 303 292 268 245 252 248 238 134 232 222 212 198 226 218 213 223 227 221 217 294 276 241 232 245 250 245 210 259 264 278 233 274 274 281 300 235 236 242 225
315 305 303 316 321 280 272 332 637 619 639 381 353 343 334 303 289 264 240 252 250 237 234 228 224 220 238 231 217 214 219 214 222 227 236 265 258 252 257 258 213 211 197 199 200 199 206 258 245 250 265 266 271 276
289 294 306 311 320 277 268 327 633 626 623 382 353 328 339 284 282 262 254 247 251 236 234 225 227 211 183 233 225 221 212 208 208 215 214 217 216 228 227 221 227 236 245 239 235 205 191 209 195 197 210 226 241 241
299 303 298 302 243 272 264 321 522 641 625 381 350 332 337 292 281 262 260 241 249 247 227 178 220 209 222 238 232 221 218 216 210 209 209 203 209 204 206 206 205 208 210 210 208 209 211 214 219 220 221 224 228 228
310 294 305 298 310 270 257 301 475 630 593 374 351 337 335 299 280 258 259 241 248 246 223 227 224 206 210 245 234 232 223 217 215 215 209 203 204 202 209 205 199 196 193 203 200 198 198 198 198 199 201 205 204 204
307 280 311 296 304 274 255 252 341 495 518 371 346 345 340 305 280 263 259 252 246 238 235 231 222 209 212 209 243 212 235 233 232 219 214 208 206 206 203 205 203 204 203 203 199 197 196 195 197 196 196 192 191 191
297 286 280 279 306 279 253 242 317 487 501 368 346 344 322 306 281 273 263 254 233 245 239 226 228 215 221 219 225 163 237 233 229 231 233 226 218 215 209 207 206 219 207 202 213 199 200 204 211 222 222 227 227 227
302 290 267 291 284 297 253 243 282 342 470 367 357 355 356 306 288 281 262 245 243 232 242 236 226 223 208 224 185 219 157 212 232 235 237 234 230 232 232 232 231 233 231 228 226 225 225 225 225 225 225 224 224 226
298 280 292 288 280 295 256 241 263 304 453 361 366 363 363 302 302 281 264 250 243 233 240 240 229 225 215 195 206 211 218 150 244 254 237 226 228 225 224 226 223 222 223 224 223 222 221 219 219 221 222 222 224 226
291 282 289 281 286 293 263 240 251 268 313 356 360 362 367 356 316 292 280 256 247 244 231 211 236 225 220 202 197 205 215 215 153 149 220 211 245 240 234 233 234 237 237 238 237 238 239 238 237 238 243 246 249 245
281 294 279 280 276 292 271 241 233 257 274 311 356 362 357 348 347 324 275 270 263 251 246 245 104 149 223 217 208 210 201 204 222 197 192 175 210 212 222 223 227 228 225 222 218 221 226 231 236 253 214 191 254 256
277 293 277 268 273 291 280 250 236 249 258 275 332 383 369 344 337 336 278 270 272 268 256 250 245 238 230 221 215 213 168 189 228 215 211 214 201 150 183 214 212 211 207 206 207 210 215 225 232 248 298 298 304 302
270 293 277 282 268 277 293 270 238 231 257 259 283 340 326 366 361 331 324 290 268 271 270 264 249 243 240 225 219 221 220 218 202 191 207 207 208 199 210 211 164 210 205 208 208 158 204 204 151 151 151 165 258 260
278 254 272 248 287 265 294 286 248 233 244 258 261 284 340 345 396 362 331 325 298 271 268 273 277 251 241 236 229 225 224 225 212 209 202 194 201 208 210 206 208 205 202 204 208 211 211 211 211 212 212 212 189 200
272 279 263 283 294 272 305 292 256 239 233 243 262 266 283 335 316 413 361 334 334 291 284 272 273 272 254 239 238 236 228 226 222 218 214 212 212 200 199 208 213 210 206 204 202 204 207 208 206 207 207 207 205 206
263 289 257 273 293 266 301 290 280 246 232 233 244 261 268 289 331 314 410 338 330 324 308 284 279 88 269 260 247 234 238 235 229 219 218 217 205 206 212 217 199 199 201 206 206 204 207 205 206 209 208 206 207 207
283 263 264 278 303 277 299 294 280 249 240 235 234 256 265 276 300 315 505 390 361 329 324 306 291 282 274 267 262 249 240 240 236 230 225 222 220 217 203 201 202 207 210 214 217 205 201 203 203 202 204 205 204 205
272 242 271 296 301 314 293 289 278 267 247 239 241 251 260 271 292 314 581 506 379 346 329 330 284 272 279 281 280 273 259 242 234 235 229 227 224 222 221 218 214 209 202 202 203 206 206 207 207 208 200 207 207 204
262 264 294 290 297 313 289 287 279 259 245 243 240 254 259 276 300 322 494 562 459 377 339 323 321 276 274 277 280 278 272 268 229 239 237 236 230 229 224 224 220 215 214 214 216 218 220 220 216 216 218 223 224 224
285 290 300 289 301 332 283 282 276 252 249 244 247 258 271 288 300 333 489 459 528 431 361 340 318 312 294 283 269 275 276 270 263 261 250 245 232 236 233 230 233 230 227 227 228 226 223 222 222 223 224 223 222 218
272 297 294 301 326 308 287 283 272 250 246 242 253 267 279 297 314 491 474 452 434 500 420 348 330 319 291 294 283 274 265 275 274 272 269 266 267 256 251 246 242 241 235 232 233 237 236 236 237 237 235 231 227 228
292 294 308 333 314 295 285 282 272 250 246 244 262 275 288 307 384 409 399 430 425 418 471 402 335 326 306 297 294 289 271 283 266 271 272 270 269 269 269 268 265 255 247 247 247 246 208 240 244 186 252 250 248 250
308 299 326 308 297 289 282 278 273 248 245 257 267 278 295 308 414 401 383 375 425 404 433 446 400 334 315 300 296 291 286 279 264 275 272 269 268 267 264 265 263 264 263 256 259 256 252 252 255 256 256 258 260 259
298 322 298 291 286 289 290 284 243 245 254 264 271 289 306 416 411 393 382 377 415 412 391 450 418 391 326 312 294 280 287 283 273 260 266 264 261 257 262 262 263 263 264 263 263 262 259 258 260 260 258 257 264 272
328 305 294 285 284 285 280 241 247 250 258 265 278 300 426 418 398 384 380 403 420 410 386 468 425 393 351 322 305 299 287 279 282 272 264 263 261 260 261 265 269 270 266 268 267 264 261 260 260 260 260 261 263 269
301 286 281 279 284 284 282 244 246 254 263 272 297 417 416 397 383 376 415 415 405 401 391 371 425 409 359 336 315 305 301 298 297 295 285 266 265 264 263 263 265 264 266 268 265 263 262 260 260 266 266 265 265 266
288 277 279 276 280 283 243 248 255 262 270 289 373 426 409 387 370 398 407 395 382 382 383 374 360 404 394 356 326 325 311 301 295 289 286 288 286 266 262 261 267 268 265 264 264 263 265 267 268 257 256 259 262 266
280 278 276 278 279 244 249 255 261 270 283 355 427 390 336 376 365 393 388 377 360 356 361 364 359 348 385 381 354 338 325 327 315 304 297 293 282 283 281 284 282 268 264 263 259 254 249 249 252 252 256 261 262 266

GFSWCAN_2pvu_pres_033.txt.gz
Presure
250 270 272 279 332 290 328 337 304 287 338 394 362 340 330 328 324 295 300 308 308 290 281 272 267 266 267 264 251 237 237 219 249 306 263 267 249 190 246 241 166 240 198 234 218 225 222 230 238 235 206 226 222 219
271 264 272 279 307 292 329 336 302 285 348 405 372 355 350 336 301 330 306 307 287 274 266 269 262 259 245 238 239 238 246 245 325 292 273 255 243 204 215 227 184 228 221 236 195 218 233 241 232 240 231 239 227 211
260 269 276 279 305 322 333 337 297 282 414 437 377 359 354 330 316 306 309 283 268 264 261 262 249 236 231 244 235 247 243 259 329 282 211 241 190 248 233 216 175 214 176 207 235 222 218 170 216 250 237 232 229 226
270 266 273 276 319 325 331 335 294 281 650 621 386 359 347 338 304 320 286 272 266 259 158 249 238 229 221 242 244 243 227 286 242 273 234 210 251 188 244 211 199 205 208 198 248 207 195 199 239 232 208 244 242 231
272 266 267 278 311 328 329 330 293 282 640 672 383 365 351 335 309 307 278 267 257 262 246 167 159 247 240 239 224 270 243 282 310 287 248 225 253 244 231 233 233 243 249 241 246 243 224 215 219 232 234 223 219 210
269 260 267 284 296 321 323 335 291 279 656 635 392 365 345 336 316 291 273 263 257 252 256 230 203 243 237 236 224 226 264 223 326 290 218 272 233 230 236 256 237 237 236 233 203 230 232 244 279 261 254 213 240 214
301 261 272 296 311 317 321 335 289 280 645 654 399 365 331 345 298 278 270 267 264 250 250 231 226 196 236 230 221 231 241 251 223 231 209 197 217 223 207 222 225 222 223 263 275 267 262 244 239 252 259 258 244 254
274 293 262 284 331 321 322 326 285 272 661 663 391 364 314 338 321 275 264 264 257 259 244 231 220 197 246 229 221 225 211 230 234 255 274 260 248 260 229 205 231 216 214 199 199 223 223 226 251 243 235 248 258 260
265 256 264 305 310 317 310 323 284 270 662 643 386 360 340 328 309 273 261 260 256 250 243 230 223 240 209 240 232 222 210 225 215 222 243 252 223 243 229 232 231 233 242 235 230 230 195 212 214 211 215 225 218 204
267 288 256 318 318 306 307 315 281 270 610 641 377 359 349 333 310 277 261 250 256 247 246 231 226 222 208 228 237 231 220 211 213 212 217 217 214 225 227 217 219 221 217 216 206 208 214 210 211 212 213 213 214 213
257 265 311 307 306 296 301 289 280 267 538 524 376 361 342 325 309 283 259 256 248 250 250 232 222 198 216 208 241 233 236 221 215 208 207 207 204 206 216 217 217 209 209 207 203 206 209 199 199 198 195 191 192 193
272 291 309 310 297 289 300 313 278 264 292 470 368 360 358 347 315 289 270 264 243 236 252 236 225 219 223 209 210 205 230 238 225 220 210 207 205 204 205 202 209 209 217 195 195 195 195 199 198 199 195 195 202 220
300 299 302 304 296 283 290 295 275 265 270 383 380 368 372 339 353 303 274 257 258 250 240 243 232 220 220 201 209 208 200 236 237 233 226 221 218 212 211 208 206 206 207 207 206 203 202 201 201 217 225 224 223 224
299 285 284 279 285 282 275 284 303 265 251 275 353 351 361 374 365 294 275 264 254 258 249 246 233 232 233 221 204 214 212 216 229 236 231 225 226 228 224 222 221 222 231 226 226 229 227 226 225 223 222 220 222 224
296 286 293 294 291 289 279 284 285 264 255 248 274 375 336 342 350 293 280 267 259 256 256 250 243 240 229 227 202 188 214 208 234 187 155 200 232 233 232 230 230 227 225 224 222 222 223 223 224 227 232 237 241 242
292 299 279 284 291 303 273 279 279 299 257 245 259 268 369 349 339 345 317 255 266 266 257 256 252 245 242 209 222 203 185 199 217 217 226 248 151 180 228 189 205 223 224 226 231 234 237 240 237 229 232 229 228 231
275 283 279 267 277 294 293 279 295 281 297 250 244 260 270 316 397 351 351 294 274 262 264 262 159 247 256 234 234 220 216 187 197 191 222 213 215 219 191 238 239 240 238 235 228 230 231 224 218 212 212 217 218 194
277 275 280 171 277 273 283 262 281 299 311 253 244 247 263 267 306 400 385 349 313 285 274 268 267 227 250 245 241 232 230 217 201 191 197 185 191 219 216 218 215 211 164 209 218 214 215 206 210 211 207 212 211 207
281 276 272 295 239 271 261 284 278 312 279 301 252 243 243 256 261 280 311 410 362 332 315 287 285 277 262 251 242 244 239 232 226 218 185 188 181 199 209 212 214 210 199 200 203 207 209 209 209 177 178 188 210 211
263 274 267 283 268 281 282 284 259 302 279 307 291 247 242 237 247 259 268 298 331 413 358 339 318 293 281 275 259 250 245 235 233 230 215 213 201 191 193 202 201 204 207 208 205 202 202 203 199 199 202 204 206 208
268 276 271 275 297 279 291 280 300 292 308 280 298 254 245 241 240 239 253 265 269 291 307 311 335 331 303 284 241 273 265 255 247 229 231 219 209 206 202 174 194 192 192 195 135 200 204 207 208 209 209 202 196 198
275 266 299 268 305 284 283 293 291 275 293 317 296 285 251 245 239 241 244 249 258 262 279 313 322 365 336 301 295 282 276 273 270 259 237 228 229 216 209 210 209 203 201 200 203 202 202 136 201 202 202 204 202 195
284 282 270 262 290 294 286 274 292 298 305 337 309 291 279 249 242 233 241 244 257 262 267 290 307 377 382 327 308 302 287 276 271 270 269 262 236 228 224 221 216 214 211 210 209 209 209 210 210 210 210 209 208 206
264 280 281 275 304 294 276 282 291 293 304 332 313 295 287 255 247 241 241 245 255 263 277 300 500 457 410 365 324 316 300 292 281 277 272 272 266 257 241 231 226 224 221 214 213 212 209 208 206 204 206 208 209 211
301 285 265 280 298 289 279 293 298 295 342 323 310 302 295 272 242 244 243 251 258 279 309 416 560 549 448 382 354 313 303 299 286 281 270 276 269 268 258 255 247 235 230 227 223 223 221 219 219 219 219 220 220 222
279 266 274 298 291 282 285 291 289 307 326 310 305 301 296 288 249 247 251 256 280 303 397 491 481 478 533 422 363 330 306 300 292 294 274 279 276 273 263 260 258 250 246 245 237 233 232 229 227 227 226 225 228 235
270 292 289 212 283 280 284 294 313 326 309 303 299 293 295 265 248 251 259 279 293 312 423 410 425 457 417 463 392 347 325 304 294 288 290 286 279 278 273 274 269 262 257 256 257 252 243 239 235 235 236 243 238 241
299 290 251 289 276 287 305 307 328 305 297 300 300 300 266 246 251 261 276 292 385 425 410 402 389 400 432 500 393 379 333 312 295 288 289 282 277 269 271 268 275 267 256 255 254 253 254 253 251 248 251 257 257 259
279 277 283 284 284 295 315 331 309 301 300 296 289 294 245 252 259 273 290 366 423 406 400 391 387 379 422 420 430 376 365 321 302 284 277 279 281 273 273 267 266 272 270 269 268 268 268 263 260 262 263 266 263 258
285 284 285 280 301 317 330 311 297 291 289 285 288 255 254 260 270 287 372 427 404 390 384 386 391 388 418 405 447 394 363 351 308 289 284 277 273 274 277 273 273 276 276 274 274 261 256 259 263 265 263 260 260 260
282 281 282 312 310 324 309 296 287 285 283 286 258 252 257 269 281 301 393 380 389 386 426 432 419 424 411 392 424 433 363 357 325 304 290 284 280 278 273 275 274 272 269 266 264 264 267 270 267 264 258 259 260 266
280 294 325 303 321 310 291 280 285 280 281 246 250 251 267 272 294 391 374 334 359 407 411 401 402 406 399 385 425 421 404 366 334 320 305 291 286 278 274 274 268 267 265 265 263 262 260 263 266 263 262 262 264 265
317 327 295 322 314 284 284 280 278 282 242 246 256 265 270 288 371 384 359 319 373 410 395 377 370 381 390 375 406 410 379 368 352 327 304 298 290 282 284 277 271 284 273 264 264 263 263 262 261 261 257 257 261 269